DW4236 Weather Reports


time (UTC)temp
C
wind
direction
speed
KPH
gust
KPH
rain 1hr
cm
rain 24hr
cm
rain mn
cm
humidity
%
barometer
mb
20260904094105 20 261 0.0 0.0 0.00 0.61 0.61 96 1011.9
20260904093605 20 261 0.0 0.0 0.00 0.61 0.61 96 1011.9
20260904093104 20 261 0.0 0.0 0.00 0.61 0.61 96 1011.8
20260904092605 20 261 0.0 1.6 0.00 0.64 0.61 96 1011.7
20260904091605 20 261 0.0 3.2 0.00 0.64 0.61 96 1011.8
20260904090604 20 261 0.0 1.6 0.00 0.64 0.61 96 1012.0
20260904090104 20 261 0.0 0.0 0.00 0.64 0.61 96 1011.9
20260904085604 20 261 0.0 0.0 0.00 0.64 0.61 96 1011.9
20260904085104 20 261 0.0 0.0 0.00 0.64 0.61 96 1011.9
20260904084605 20 261 0.0 0.0 0.00 0.64 0.61 96 1011.9
20260904084104 20 261 0.0 0.0 0.00 0.64 0.61 96 1011.8
20260904083605 20 261 0.0 1.6 0.00 0.64 0.61 96 1011.8
20260904083104 21 261 0.0 0.0 0.00 0.64 0.61 96 1011.7
20260904082105 21 261 0.0 0.0 0.03 0.64 0.61 96 1011.5
20260904081604 21 261 1.6 3.2 0.05 0.64 0.61 96 1011.4
20260904081104 21 261 0.0 0.0 0.10 0.64 0.61 96 1011.3
20260904080604 21 261 0.0 0.0 0.13 0.64 0.61 96 1011.3
20260904080104 21 261 0.0 3.2 0.13 0.64 0.61 95 1011.2
20260904075605 21 261 1.6 3.2 0.15 0.64 0.61 95 1011.2
20260904075106 21 203 0.0 1.6 0.18 0.64 0.61 95 1011.2
20260904074604 21 203 1.6 3.2 0.28 0.64 0.61 95 1011.2
20260904074106 21 202 0.0 0.0 0.46 0.64 0.61 95 1011.2
20260904073606 21 202 0.0 0.0 0.51 0.64 0.61 95 1011.1
20260904073104 21 203 0.0 0.0 0.51 0.66 0.61 95 1011.1
20260904072604 21 203 0.0 0.0 0.51 0.66 0.61 95 1011.4
20260904071605 21 211 0.0 4.8 0.51 0.61 0.56 95 1011.8
20260904071104 21 267 1.6 3.2 0.51 0.56 0.51 95 1012.2
20260904070604 21 275 3.2 4.8 0.48 0.53 0.48 95 1012.3
20260904070106 21 32 3.2 19.3 0.48 0.53 0.48 95 1012.3
20260904065604 21 265 8.0 20.9 0.46 0.51 0.46 95 1012.5
20260904065105 22 294 8.0 16.1 0.43 0.48 0.43 94 1012.5
20260904064604 23 336 11.3 29.0 0.33 0.38 0.33 96 1012.8
20260904064105 23 259 0.0 1.6 0.15 0.20 0.15 96 1012.6
20260904063105 22 259 0.0 0.0 0.10 0.15 0.10 96 1012.1
20260904062606 22 259 0.0 0.0 0.10 0.15 0.10 96 1012.0
20260904062104 22 259 0.0 0.0 0.08 0.13 0.08 95 1011.9
20260904061604 22 259 0.0 0.0 0.05 0.10 0.05 95 1011.9
20260904061104 22 259 0.0 0.0 0.00 0.05 0.00 95 1011.9
20260904060604 22 259 0.0 0.0 0.00 0.08 0.00 95 1011.8
20260904060105 22 259 0.0 0.0 0.00 0.08 0.00 95 1011.8
20260904055104 22 259 0.0 0.0 0.00 0.08 0.00 95 1011.9
20260904054606 22 259 0.0 0.0 0.00 0.08 0.00 95 1012.0
20260904053104 23 259 0.0 0.0 0.00 0.10 0.00 95 1012.2
20260904052604 23 259 0.0 0.0 0.00 0.10 0.00 95 1012.2
20260904052104 23 259 0.0 0.0 0.00 0.13 0.00 95 1012.3
20260904051604 23 259 0.0 0.0 0.00 0.13 0.00 95 1012.3
20260904051106 22 259 0.0 0.0 0.00 0.15 0.00 95 1012.3
20260904050605 22 259 0.0 0.0 0.00 0.18 0.00 95 1012.3
20260904050105 22 259 0.0 0.0 0.00 0.23 0.00 95 1012.3
20260904045605 22 259 0.0 0.0 0.00 0.28 0.00 95 1012.4
20260904044604 22 259 0.0 0.0 0.00 0.41 0.00 95 1012.3
20260904044105 22 259 0.0 0.0 0.00 0.46 0.00 95 1012.3
20260904043604 22 259 0.0 0.0 0.00 0.53 0.00 95 1012.4
20260904043104 22 259 0.0 0.0 0.00 0.58 0.00 95 1012.4
20260904042604 22 259 0.0 0.0 0.00 0.66 0.00 95 1012.4
20260904042104 22 259 0.0 0.0 0.00 0.74 0.00 95 1012.5
20260904041604 22 259 0.0 0.0 0.00 0.94 0.00 95 1012.6
20260904040605 22 259 0.0 0.0 0.00 0.94 0.00 95 1012.7
20260904040105 22 259 0.0 0.0 0.00 0.94 0.00 95 1012.7
20260904035605 22 259 0.0 0.0 0.00 0.94 0.94 94 1012.7
20260904034604 22 259 0.0 0.0 0.00 0.94 0.94 94 1012.4
20260904034105 22 259 0.0 0.0 0.00 0.94 0.94 94 1012.5
20260904033604 23 259 0.0 0.0 0.00 0.94 0.94 94 1012.5
20260904033105 23 259 0.0 0.0 0.00 0.94 0.94 94 1012.5
20260904032604 23 259 0.0 0.0 0.00 0.94 0.94 94 1012.5
20260904031604 23 259 0.0 0.0 0.00 0.94 0.94 94 1012.5
20260904031104 23 259 0.0 0.0 0.00 0.94 0.94 94 1012.5
20260904030605 23 259 0.0 0.0 0.00 0.94 0.94 94 1012.5
20260904030104 23 259 0.0 0.0 0.00 0.94 0.94 94 1012.6
20260904025604 23 259 0.0 0.0 0.00 0.94 0.94 94 1012.8
20260904025105 23 259 0.0 0.0 0.00 0.94 0.94 94 1012.9
20260904023604 23 259 0.0 0.0 0.00 0.94 0.94 94 1013.2
20260904023104 23 259 0.0 0.0 0.00 0.94 0.94 94 1013.2
20260904022604 23 259 0.0 1.6 0.00 0.94 0.94 94 1013.2
20260904022104 23 259 0.0 0.0 0.00 0.94 0.94 94 1013.2
20260904021604 23 259 0.0 0.0 0.00 0.94 0.94 94 1013.2
20260904020605 23 259 0.0 0.0 0.00 0.94 0.94 94 1013.2
20260904020106 23 259 0.0 0.0 0.00 0.94 0.94 94 1013.3
20260904015605 23 259 0.0 0.0 0.00 0.94 0.94 93 1013.3
20260904015104 23 259 0.0 0.0 0.00 0.94 0.94 93 1013.3
20260904014604 23 259 0.0 0.0 0.00 0.94 0.94 93 1013.4
20260904014104 23 259 0.0 0.0 0.00 0.94 0.94 93 1013.5
20260904013605 23 259 0.0 0.0 0.00 0.94 0.94 93 1013.7
20260904013105 23 259 0.0 0.0 0.00 0.94 0.94 93 1013.6
20260904012604 23 259 0.0 0.0 0.00 0.94 0.94 93 1013.5
20260904011629 23 259 0.0 0.0 0.00 0.94 0.94 93 1013.3
20260904011104 23 259 0.0 0.0 0.00 0.94 0.94 92 1013.2
20260904010604 23 259 0.0 0.0 0.00 0.94 0.94 92 1013.3
20260904010105 23 259 0.0 0.0 0.00 0.94 0.94 92 1013.3
20260904005605 23 259 0.0 1.6 0.00 0.94 0.94 92 1013.4
20260904004605 24 259 0.0 0.0 0.00 0.94 0.94 91 1013.3
20260904003605 24 259 0.0 0.0 0.00 0.94 0.94 91 1013.3
20260904002605 24 259 0.0 0.0 0.00 0.94 0.94 91 1013.1
20260904002104 25 259 0.0 0.0 0.00 0.94 0.94 90 1013.2
20260904001604 25 259 0.0 0.0 0.00 0.94 0.94 90 1013.2
20260904001105 25 259 0.0 0.0 0.00 0.94 0.94 90 1013.1
20260904000604 25 259 0.0 0.0 0.00 0.94 0.94 89 1013.1
20260904000104 25 259 0.0 0.0 0.00 0.94 0.94 89 1013.0
20260903235604 25 259 0.0 0.0 0.00 0.94 0.94 89 1012.9
20260903235104 25 259 0.0 0.0 0.00 0.94 0.94 88 1012.9
20260903234604 25 259 0.0 0.0 0.00 0.94 0.94 88 1013.0
20260903233604 26 259 0.0 0.0 0.00 0.94 0.94 87 1012.9
20260903233104 26 259 0.0 0.0 0.00 0.94 0.94 86 1012.8
20260903232605 26 259 0.0 0.0 0.00 0.94 0.94 85 1012.7
20260903232105 26 259 0.0 0.0 0.00 0.94 0.94 85 1012.7
20260903231604 26 259 0.0 0.0 0.00 0.94 0.94 84 1012.7
20260903230605 27 259 0.0 1.6 0.00 0.94 0.94 83 1012.7
20260903230104 27 259 0.0 1.6 0.00 0.94 0.94 83 1012.7
20260903225604 27 259 0.0 0.0 0.00 0.94 0.94 82 1012.6
20260903225104 27 259 0.0 0.0 0.00 0.94 0.94 81 1012.5
20260903224604 27 259 0.0 0.0 0.00 0.94 0.94 81 1012.7
20260903224105 28 259 0.0 0.0 0.00 0.94 0.94 79 1012.7
20260903223604 28 259 0.0 1.6 0.00 0.94 0.94 78 1012.8
20260903223104 28 259 0.0 0.0 0.00 0.94 0.94 77 1012.8
20260903222604 28 259 1.6 8.0 0.00 0.94 0.94 75 1012.8
20260903222104 28 259 0.0 1.6 0.00 0.94 0.94 76 1012.9
20260903221604 28 259 0.0 1.6 0.00 0.94 0.94 75 1012.8
20260903221104 29 259 0.0 1.6 0.00 0.94 0.94 75 1012.7
20260903220604 29 259 0.0 3.2 0.00 0.94 0.94 75 1012.8
20260903220104 29 259 0.0 0.0 0.00 0.94 0.94 75 1012.8
20260903215604 29 259 0.0 3.2 0.00 0.94 0.94 74 1013.0
20260903215104 29 259 0.0 3.2 0.00 0.94 0.94 74 1012.9
20260903214604 29 259 1.6 4.8 0.00 0.94 0.94 74 1013.1
20260903214104 29 259 1.6 4.8 0.00 0.94 0.94 73 1013.1
20260903213605 29 259 0.0 3.2 0.00 0.94 0.94 74 1013.0
20260903213104 29 259 1.6 4.8 0.00 0.94 0.94 74 1013.0
20260903212605 29 259 1.6 4.8 0.00 0.94 0.94 73 1012.9
20260903212104 29 259 1.6 4.8 0.00 0.94 0.94 72 1012.8
20260903210605 29 238 1.6 4.8 0.00 0.94 0.94 71 1012.7
20260903210104 30 246 4.8 9.7 0.00 0.94 0.94 71 1012.8
20260903205104 30 272 4.8 9.7 0.00 0.94 0.94 70 1012.8
20260903204103 30 250 1.6 4.8 0.00 0.94 0.94 72 1012.8
20260903203604 30 272 3.2 9.7 0.00 0.94 0.94 69 1012.8
20260903203104 30 342 3.2 9.7 0.00 0.94 0.94 69 1012.7
20260903202104 30 343 3.2 11.3 0.00 0.94 0.94 69 1012.9
20260903201105 30 275 3.2 8.0 0.00 0.94 0.94 70 1012.9
20260903200604 30 358 4.8 11.3 0.00 0.94 0.94 71 1013.0
20260903195605 30 344 1.6 8.0 0.00 0.94 0.94 73 1013.2
20260903195104 29 262 6.4 11.3 0.00 0.94 0.94 72 1013.3
20260903194604 29 307 4.8 9.7 0.00 0.94 0.94 74 1013.3
20260903194104 29 292 3.2 14.5 0.00 0.94 0.94 74 1013.4
20260903192604 29 62 3.2 11.3 0.00 0.94 0.94 74 1013.4
20260903192105 28 303 3.2 8.0 0.00 0.94 0.94 75 1013.2
20260903191604 28 21 3.2 11.3 0.00 0.94 0.94 75 1013.3
20260903191104 28 319 1.6 9.7 0.00 0.94 0.94 74 1013.3
20260903190604 28 301 4.8 9.7 0.00 0.94 0.94 76 1013.3
20260903190103 28 266 3.2 4.8 0.00 0.94 0.94 76 1013.2
20260903185104 28 330 3.2 9.7 0.00 0.97 0.94 77 1013.4
20260903184605 28 279 3.2 11.3 0.00 0.97 0.94 78 1013.5
20260903184104 28 295 1.6 4.8 0.00 0.97 0.94 78 1013.5
20260903183604 27 260 1.6 4.8 0.00 0.99 0.94 79 1013.7
20260903182605 27 264 4.8 8.0 0.00 1.02 0.94 78 1013.7
20260903182104 27 275 0.0 8.0 0.00 1.07 0.94 78 1013.9
20260903181104 27 263 4.8 11.3 0.00 1.19 0.94 75 1013.9
20260903180605 28 307 1.6 19.3 0.00 1.22 0.94 75 1013.9
20260903180105 28 265 8.0 19.3 0.00 1.30 0.94 75 1014.0
20260903175105 28 315 3.2 12.9 0.00 1.45 0.94 75 1014.0
20260903174103 28 308 8.0 14.5 0.00 1.83 0.94 77 1014.0
20260903173604 28 275 4.8 12.9 0.00 2.08 0.94 76 1014.0
20260903173104 28 279 4.8 11.3 0.00 2.16 0.94 77 1014.1
20260903172604 27 276 1.6 11.3 0.00 2.16 0.94 79 1014.1
20260903172104 27 269 8.0 14.5 0.00 2.16 0.94 79 1014.3
20260903171605 27 258 4.8 16.1 0.00 2.16 0.94 79 1014.3
20260903171105 27 303 3.2 14.5 0.00 2.16 0.94 82 1014.3
20260903170105 26 253 3.2 8.0 0.00 2.16 0.94 83 1014.3
20260903165604 26 254 1.6 9.7 0.00 2.16 0.94 84 1014.5
20260903164604 25 291 8.0 16.1 0.00 2.16 0.94 83 1014.7
20260903164104 25 291 4.8 14.5 0.00 2.16 0.94 84 1014.7
20260903163604 25 269 6.4 12.9 0.00 2.16 0.94 83 1014.8
20260903162604 25 291 3.2 8.0 0.00 2.16 0.94 84 1014.9
20260903161605 25 295 4.8 16.1 0.00 2.16 0.94 84 1015.1
20260903161104 25 233 4.8 11.3 0.00 2.16 0.94 85 1015.1
20260903160606 25 287 3.2 12.9 0.00 2.16 0.94 86 1015.2
20260903155604 25 255 1.6 8.0 0.00 2.16 0.94 85 1015.2
20260903155105 25 312 1.6 9.7 0.00 2.16 0.94 86 1015.3
20260903154604 25 269 4.8 16.1 0.00 2.16 0.94 86 1015.4
20260903154104 25 280 3.2 11.3 0.00 2.16 0.94 85 1015.5
20260903153604 25 272 9.7 12.9 0.00 2.16 0.94 87 1015.7
20260903152604 24 214 3.2 11.3 0.00 2.16 0.94 89 1015.6
20260903152104 23 263 3.2 4.8 0.00 2.16 0.94 89 1015.6
20260903151605 23 260 6.4 12.9 0.00 2.16 0.94 89 1015.6
20260903151104 23 266 1.6 8.0 0.00 2.16 0.94 90 1015.7
20260903150105 23 213 4.8 8.0 0.00 2.16 0.94 90 1015.9
20260903145604 23 291 1.6 8.0 0.00 2.16 0.94 91 1015.9
20260903144604 22 265 4.8 12.9 0.00 2.16 0.94 92 1015.9
20260903144105 22 256 4.8 9.7 0.00 2.16 0.94 93 1015.8
20260903143604 22 270 8.0 12.9 0.00 2.16 0.94 92 1015.8
20260903143104 22 269 4.8 12.9 0.00 2.16 0.94 93 1015.8
20260903142605 22 278 4.8 16.1 0.00 2.16 0.94 94 1015.8
20260903142104 22 256 9.7 19.3 0.00 2.16 0.94 94 1015.8
20260903141604 22 250 4.8 22.5 0.00 2.16 0.94 95 1015.8
20260903141105 22 278 3.2 16.1 0.00 2.16 0.94 96 1015.8
20260903140605 22 257 3.2 14.5 0.00 2.16 0.94 96 1015.6
20260903140104 21 295 8.0 16.1 0.00 2.16 0.94 96 1015.6
20260903135605 21 271 8.0 12.9 0.00 2.16 0.94 96 1015.6
20260903135104 21 263 3.2 14.5 0.00 2.16 0.94 97 1015.7
20260903134606 21 299 9.7 19.3 0.00 2.16 0.94 97 1015.8
20260903133604 21 280 3.2 9.7 0.00 2.16 0.94 97 1015.8
20260903132604 21 257 3.2 11.3 0.00 2.16 0.94 97 1015.8
20260903132104 21 259 3.2 8.0 0.00 2.16 0.94 97 1015.9
20260903131604 21 268 3.2 9.7 0.00 2.16 0.94 97 1015.9
20260903131104 20 261 1.6 12.9 0.00 2.16 0.94 97 1015.7
20260903130605 21 280 4.8 9.7 0.00 2.16 0.94 97 1015.8
20260903130104 21 256 3.2 8.0 0.00 2.16 0.94 97 1015.7
20260903125605 21 252 0.0 8.0 0.00 2.16 0.94 97 1015.6
20260903125105 21 252 0.0 1.6 0.00 2.16 0.94 97 1015.7
20260903124604 21 252 0.0 3.2 0.00 2.16 0.94 97 1015.8
20260903123605 20 252 0.0 1.6 0.00 2.16 0.94 97 1016.2
20260903123103 20 252 0.0 0.0 0.00 2.16 0.94 97 1016.1
20260903122104 20 252 0.0 0.0 0.00 2.16 0.94 97 1016.1
20260903121604 20 252 0.0 0.0 0.00 2.16 0.94 97 1016.2
20260903121104 20 252 0.0 3.2 0.00 2.16 0.94 97 1016.1
20260903120604 20 252 1.6 4.8 0.00 2.16 0.94 97 1016.1
20260903115604 20 252 0.0 3.2 0.00 2.16 0.94 97 1016.1
20260903115105 19 252 0.0 0.0 0.00 2.16 0.94 97 1016.1
20260903114604 19 252 0.0 0.0 0.00 2.16 0.94 97 1016.1
20260903114103 19 252 0.0 0.0 0.00 2.16 0.94 97 1016.3
20260903113104 19 252 0.0 0.0 0.00 2.16 0.94 97 1016.3
20260903112104 19 252 0.0 0.0 0.00 2.16 0.94 97 1016.6
20260903111604 18 252 0.0 0.0 0.00 2.16 0.94 97 1016.5
20260903111104 18 252 0.0 0.0 0.00 2.16 0.94 97 1016.2
20260903110604 18 252 0.0 0.0 0.00 2.16 0.94 97 1016.3
20260903110104 18 252 0.0 0.0 0.00 2.16 0.94 97 1016.3
20260903105604 18 252 0.0 0.0 0.00 2.16 0.94 97 1016.2
20260903105104 18 252 0.0 0.0 0.00 2.16 0.94 97 1016.3
20260903104604 18 252 0.0 0.0 0.00 2.16 0.94 97 1016.3
20260903104104 18 252 0.0 0.0 0.00 2.16 0.94 97 1016.4
20260903103604 18 252 0.0 0.0 0.00 2.16 0.94 97 1016.4
20260903103105 18 252 0.0 0.0 0.00 2.16 0.94 97 1016.3
20260903102605 18 252 0.0 0.0 0.03 2.16 0.94 97 1016.3
20260903101604 18 252 0.0 0.0 0.03 2.16 0.94 97 1016.5
20260903101104 18 252 0.0 0.0 0.03 2.16 0.94 97 1016.5
20260903100604 18 252 0.0 0.0 0.03 2.16 0.94 97 1016.4
20260903100103 18 252 0.0 0.0 0.03 2.16 0.94 97 1016.5
20260903095605 18 252 0.0 0.0 0.03 2.16 0.94 97 1016.4
20260903095104 18 252 0.0 0.0 0.03 2.16 0.94 97 1016.2
20260903094604 18 252 0.0 0.0 0.03 2.16 0.94 97 1016.3